DIEER EDXW-EGEP

Flight info

Callsign DIEER
Flight time 1h 53m
Altitude 25000
Route INSUS DCT ATNAK DCT FORTY DCT KOKAL
Aircraft SF50/L-SDGRWY/L

Departure

Time 2026-04-20 15:10
Airport Westerland Sylt Airport (EDXW)

Arrival

Time 2026-04-20 17:03
Airport Papa Westray Airport (EGEP)
Time Latitude Longitude Altitude Speed Heading
2026-04-20 14:56 54.91251 8.32518 21 ft 0 kts 243°
2026-04-20 15:04 54.91240 8.32507 21 ft 7 kts 149°
2026-04-20 15:04 54.91188 8.32584 21 ft 11 kts 144°
2026-04-20 15:04 54.91124 8.32667 22 ft 12 kts 136°
2026-04-20 15:04 54.91080 8.32787 22 ft 12 kts 108°
2026-04-20 15:05 54.91050 8.32905 25 ft 9 kts 117°
2026-04-20 15:05 54.91017 8.32978 26 ft 8 kts 120°
2026-04-20 15:05 54.91026 8.33064 27 ft 8 kts 61°
2026-04-20 15:05 54.91056 8.33144 28 ft 9 kts 46°
2026-04-20 15:06 54.91127 8.33176 28 ft 11 kts
2026-04-20 15:06 54.91209 8.33179 27 ft 12 kts 360°
2026-04-20 15:06 54.91296 8.33188 22 ft 13 kts
2026-04-20 15:06 54.91379 8.33182 23 ft 11 kts 356°
2026-04-20 15:07 54.91445 8.33180 22 ft 8 kts 359°
2026-04-20 15:07 54.91491 8.33179 23 ft 6 kts 359°
2026-04-20 15:07 54.91529 8.33177 24 ft 10 kts 359°
2026-04-20 15:07 54.91632 8.33177 29 ft 17 kts 359°
2026-04-20 15:08 54.91720 8.33174 29 ft 11 kts 359°
2026-04-20 15:08 54.91792 8.33184 29 ft 10 kts 12°
2026-04-20 15:08 54.91853 8.33218 29 ft 8 kts 21°
2026-04-20 15:08 54.91893 8.33273 29 ft 9 kts 65°
2026-04-20 15:09 54.91838 8.33412 29 ft 27 kts 146°
2026-04-20 15:09 54.91561 8.33755 30 ft 73 kts 144°
2026-04-20 15:09 54.91034 8.34405 95 ft 105 kts 145°
2026-04-20 15:09 54.90422 8.35188 333 ft 115 kts 144°
2026-04-20 15:10 54.89717 8.35996 513 ft 131 kts 148°
2026-04-20 15:10 54.88908 8.36992 640 ft 154 kts 143°
2026-04-20 15:10 54.87991 8.38167 961 ft 168 kts 145°
2026-04-20 15:10 54.87040 8.39339 1529 ft 168 kts 145°
2026-04-20 15:11 54.86085 8.40525 2055 ft 169 kts 145°
2026-04-20 15:11 54.85121 8.41716 2569 ft 171 kts 145°
2026-04-20 15:11 54.84152 8.42917 3090 ft 172 kts 145°
2026-04-20 15:11 54.83186 8.44110 3567 ft 173 kts 145°
2026-04-20 15:12 54.82194 8.45334 3989 ft 181 kts 145°
2026-04-20 15:12 54.81083 8.46704 4016 ft 210 kts 145°
2026-04-20 15:12 54.79804 8.48274 4020 ft 240 kts 145°
2026-04-20 15:12 54.78492 8.49891 4983 ft 218 kts 145°
2026-04-20 15:13 54.77332 8.51319 6031 ft 190 kts 145°
2026-04-20 15:13 54.76297 8.52589 6725 ft 180 kts 145°
2026-04-20 15:13 54.75259 8.53859 7143 ft 183 kts 145°
2026-04-20 15:13 54.74218 8.55137 7588 ft 184 kts 145°
2026-04-20 15:14 54.73166 8.56425 8013 ft 186 kts 145°
2026-04-20 15:14 54.72111 8.57721 8436 ft 187 kts 145°
2026-04-20 15:14 54.71047 8.59024 8850 ft 188 kts 145°
2026-04-20 15:14 54.69976 8.60337 9246 ft 189 kts 145°
2026-04-20 15:15 54.68899 8.61657 9643 ft 190 kts 145°
2026-04-20 15:15 54.67814 8.62982 10027 ft 191 kts 145°
2026-04-20 15:15 54.66722 8.64319 10403 ft 193 kts 145°
2026-04-20 15:15 54.65623 8.65660 10776 ft 194 kts 145°
2026-04-20 15:16 54.64518 8.67009 11146 ft 195 kts 145°
2026-04-20 15:16 54.63406 8.68363 11512 ft 196 kts 145°
2026-04-20 15:16 54.62290 8.69723 11874 ft 197 kts 145°
2026-04-20 15:16 54.61116 8.70939 12209 ft 198 kts 161°
2026-04-20 15:17 54.59765 8.70910 12572 ft 197 kts 201°
2026-04-20 15:17 54.58746 8.69399 12921 ft 197 kts 241°
2026-04-20 15:17 54.58465 8.67151 13260 ft 198 kts 276°
2026-04-20 15:17 54.59037 8.65020 13603 ft 200 kts 313°
2026-04-20 15:18 54.60259 8.63938 13945 ft 202 kts 352°
2026-04-20 15:18 54.61656 8.64156 14265 ft 204 kts 10°
2026-04-20 15:18 54.63054 8.64616 14597 ft 205 kts
2026-04-20 15:18 54.64465 8.65037 14937 ft 206 kts
2026-04-20 15:19 54.65884 8.65375 15256 ft 207 kts 359°
2026-04-20 15:19 54.67241 8.64643 15581 ft 206 kts 328°
2026-04-20 15:19 54.68412 8.63196 15892 ft 208 kts 323°
2026-04-20 15:19 54.69614 8.61794 16219 ft 209 kts 327°
2026-04-20 15:20 54.70854 8.60464 16542 ft 210 kts 327°
2026-04-20 15:20 54.72093 8.59118 16863 ft 211 kts 327°
2026-04-20 15:20 54.73339 8.57757 17182 ft 212 kts 327°
2026-04-20 15:20 54.74592 8.56385 17500 ft 213 kts 327°
2026-04-20 15:21 54.75832 8.55031 17811 ft 214 kts 327°
2026-04-20 15:21 54.77098 8.53645 18122 ft 215 kts 327°
2026-04-20 15:21 54.78368 8.52255 18430 ft 217 kts 327°
2026-04-20 15:21 54.79651 8.50851 18739 ft 218 kts 327°
2026-04-20 15:22 54.80935 8.49441 19043 ft 219 kts 327°
2026-04-20 15:22 54.82227 8.48027 19346 ft 220 kts 327°
2026-04-20 15:22 54.83521 8.46602 19644 ft 221 kts 327°
2026-04-20 15:22 54.84823 8.45174 19940 ft 222 kts 327°
2026-04-20 15:23 54.86130 8.43736 20233 ft 223 kts 327°
2026-04-20 15:23 54.87444 8.42289 20526 ft 224 kts 327°
2026-04-20 15:23 54.88765 8.40834 20806 ft 225 kts 327°
2026-04-20 15:23 54.90073 8.39387 21118 ft 225 kts 327°
2026-04-20 15:24 54.91393 8.37932 21427 ft 225 kts 327°
2026-04-20 15:24 54.92712 8.36471 21730 ft 225 kts 327°
2026-04-20 15:24 54.94031 8.35014 22029 ft 224 kts 327°
2026-04-20 15:24 54.95350 8.33553 22323 ft 224 kts 327°
2026-04-20 15:25 54.96662 8.32098 22615 ft 224 kts 327°
2026-04-20 15:25 54.97976 8.30641 22899 ft 223 kts 327°
2026-04-20 15:25 54.99288 8.29185 23187 ft 223 kts 327°
2026-04-20 15:25 55.00595 8.27735 23462 ft 223 kts 327°
2026-04-20 15:26 55.01906 8.26275 23731 ft 223 kts 327°
2026-04-20 15:26 55.03213 8.24824 24000 ft 222 kts 327°
2026-04-20 15:26 55.04516 8.23371 24263 ft 222 kts 327°
2026-04-20 15:26 55.05803 8.21942 24520 ft 222 kts 327°
2026-04-20 15:27 55.07105 8.20490 24780 ft 222 kts 327°
2026-04-20 15:27 55.08406 8.19041 25031 ft 222 kts 327°
2026-04-20 15:27 55.09705 8.17592 25282 ft 221 kts 327°
2026-04-20 15:27 55.11002 8.16143 25527 ft 221 kts 327°
2026-04-20 15:28 55.12298 8.14698 25771 ft 221 kts 327°
2026-04-20 15:28 55.13592 8.13248 26011 ft 221 kts 327°
2026-04-20 15:28 55.14886 8.11804 26247 ft 220 kts 327°
2026-04-20 15:28 55.16176 8.10356 26480 ft 220 kts 327°
2026-04-20 15:29 55.17464 8.08914 26710 ft 220 kts 327°
2026-04-20 15:29 55.18755 8.07467 26936 ft 220 kts 327°
2026-04-20 15:29 55.20040 8.06024 27159 ft 220 kts 327°
2026-04-20 15:29 55.21328 8.04578 27384 ft 219 kts 327°
2026-04-20 15:30 55.22599 8.03105 27590 ft 219 kts 321°
2026-04-20 15:30 55.23726 8.01305 27785 ft 219 kts 316°
2026-04-20 15:30 55.24832 7.99517 27995 ft 219 kts 317°
2026-04-20 15:30 55.25956 7.97722 28198 ft 218 kts 317°
2026-04-20 15:31 55.27076 7.95925 28402 ft 218 kts 317°
2026-04-20 15:31 55.28199 7.94125 28603 ft 218 kts 317°
2026-04-20 15:31 55.29316 7.92328 28803 ft 218 kts 317°
2026-04-20 15:31 55.30435 7.90532 28997 ft 218 kts 317°
2026-04-20 15:32 55.31548 7.88738 29190 ft 218 kts 317°
2026-04-20 15:32 55.32666 7.86938 29380 ft 217 kts 317°
2026-04-20 15:32 55.33779 7.85144 29568 ft 217 kts 317°
2026-04-20 15:32 55.34893 7.83347 29753 ft 217 kts 317°
2026-04-20 15:33 55.36005 7.81553 29935 ft 217 kts 317°
2026-04-20 15:33 55.37128 7.79737 29997 ft 223 kts 317°
2026-04-20 15:33 55.38289 7.77862 30010 ft 231 kts 317°
2026-04-20 15:33 55.39493 7.75912 30006 ft 239 kts 317°
2026-04-20 15:34 55.40734 7.73909 30010 ft 245 kts 317°
2026-04-20 15:34 55.42007 7.71846 30008 ft 252 kts 317°
2026-04-20 15:34 55.43295 7.69759 30007 ft 257 kts 317°
2026-04-20 15:34 55.44626 7.67600 30009 ft 262 kts 317°
2026-04-20 15:35 55.45982 7.65395 30007 ft 267 kts 317°
2026-04-20 15:35 55.47358 7.63160 30008 ft 271 kts 317°
2026-04-20 15:35 55.48750 7.60893 30015 ft 274 kts 317°
2026-04-20 15:35 55.50160 7.58596 30007 ft 277 kts 317°
2026-04-20 15:36 55.51585 7.56272 30008 ft 280 kts 317°
2026-04-20 15:36 55.53023 7.53922 30008 ft 282 kts 317°
2026-04-20 15:36 55.54471 7.51559 30007 ft 285 kts 317°
2026-04-20 15:36 55.55931 7.49169 30007 ft 287 kts 317°
2026-04-20 15:37 55.57398 7.46765 30006 ft 289 kts 317°
2026-04-20 15:37 55.58877 7.44341 30008 ft 291 kts 317°
2026-04-20 15:37 55.59858 7.42730 30008 ft 292 kts 317°
2026-04-20 15:37 55.61355 7.40269 30008 ft 294 kts 317°
2026-04-20 15:38 55.63348 7.36990 30015 ft 296 kts 316°
2026-04-20 15:38 55.64859 7.34498 30007 ft 298 kts 317°
2026-04-20 15:38 55.66382 7.31989 30007 ft 300 kts 316°
2026-04-20 15:39 55.68948 7.27747 30008 ft 302 kts 316°
2026-04-20 15:39 55.72017 7.22667 30014 ft 305 kts 316°
2026-04-20 15:40 55.75132 7.17499 30006 ft 308 kts 316°
2026-04-20 15:40 55.78269 7.12283 30006 ft 310 kts 316°
2026-04-20 15:41 55.81426 7.07021 30006 ft 312 kts 316°
2026-04-20 15:41 55.84602 7.01715 30017 ft 314 kts 316°
2026-04-20 15:42 55.87709 6.96518 29996 ft 297 kts 316°
2026-04-20 15:42 55.89188 6.94035 29992 ft 288 kts 316°
2026-04-20 15:42 55.90630 6.91613 29990 ft 281 kts 316°
2026-04-20 15:42 55.92036 6.89252 29992 ft 275 kts 316°
2026-04-20 15:43 55.93395 6.86963 29991 ft 270 kts 316°
2026-04-20 15:43 55.94750 6.84684 29990 ft 265 kts 316°
2026-04-20 15:43 55.96082 6.82438 29992 ft 261 kts 316°
2026-04-20 15:43 55.97395 6.80223 29993 ft 258 kts 316°
2026-04-20 15:44 55.98697 6.78026 29992 ft 255 kts 316°
2026-04-20 15:44 55.99981 6.75851 29992 ft 253 kts 316°
2026-04-20 15:44 56.01255 6.73699 29992 ft 251 kts 316°
2026-04-20 15:44 56.02517 6.71560 29992 ft 249 kts 316°
2026-04-20 15:45 56.03771 6.69435 29990 ft 248 kts 316°
2026-04-20 15:45 56.05011 6.67332 29995 ft 251 kts 316°
2026-04-20 15:45 56.06293 6.65151 30001 ft 257 kts 316°
2026-04-20 15:45 56.07603 6.62927 30008 ft 262 kts 316°
2026-04-20 15:46 56.08935 6.60659 30016 ft 266 kts 316°
2026-04-20 15:46 56.10287 6.58357 30007 ft 270 kts 316°
2026-04-20 15:46 56.11664 6.56010 30008 ft 274 kts 316°
2026-04-20 15:46 56.13051 6.53640 30016 ft 277 kts 316°
2026-04-20 15:47 56.14455 6.51241 30008 ft 280 kts 316°
2026-04-20 15:47 56.15870 6.48816 30008 ft 282 kts 316°
2026-04-20 15:47 56.17297 6.46373 30013 ft 284 kts 316°
2026-04-20 15:47 56.18733 6.43909 30014 ft 287 kts 316°
2026-04-20 15:48 56.20178 6.41426 30006 ft 289 kts 316°
2026-04-20 15:48 56.21619 6.38953 30009 ft 291 kts 316°
2026-04-20 15:48 56.23085 6.36428 30007 ft 293 kts 316°
2026-04-20 15:48 56.24560 6.33887 30008 ft 295 kts 316°
2026-04-20 15:49 56.26042 6.31332 30016 ft 296 kts 316°
2026-04-20 15:49 56.27535 6.28752 30021 ft 298 kts 316°
2026-04-20 15:49 56.29037 6.26157 30007 ft 300 kts 316°
2026-04-20 15:50 56.32061 6.20919 30007 ft 303 kts 316°
2026-04-20 15:50 56.35107 6.15634 30008 ft 306 kts 316°
2026-04-20 15:51 56.38185 6.10283 30008 ft 308 kts 316°
2026-04-20 15:51 56.41288 6.04873 30007 ft 310 kts 316°
2026-04-20 15:52 56.44360 5.99507 30004 ft 302 kts 315°
2026-04-20 15:52 56.45221 5.97998 29999 ft 296 kts 315°
2026-04-20 15:52 56.45449 5.97600 29998 ft 294 kts 315°
2026-04-20 15:53 56.47685 5.93686 29991 ft 280 kts 315°
2026-04-20 15:53 56.49061 5.91269 29990 ft 272 kts 315°
2026-04-20 15:53 56.50404 5.88911 29991 ft 266 kts 315°
2026-04-20 15:53 56.51718 5.86599 29991 ft 261 kts 315°
2026-04-20 15:54 56.53005 5.84333 29989 ft 256 kts 315°
2026-04-20 15:54 56.54274 5.82099 29992 ft 252 kts 315°
2026-04-20 15:54 56.55522 5.79896 29992 ft 249 kts 315°
2026-04-20 15:54 56.56753 5.77724 29991 ft 246 kts 315°
2026-04-20 15:55 56.57975 5.75565 29990 ft 244 kts 315°
2026-04-20 15:55 56.59208 5.73382 29996 ft 251 kts 315°
2026-04-20 15:55 56.60470 5.71150 30005 ft 256 kts 315°
2026-04-20 15:55 56.61760 5.68861 30014 ft 261 kts 315°
2026-04-20 15:56 56.63055 5.66566 30017 ft 266 kts 315°
2026-04-20 15:56 56.64389 5.64196 30014 ft 270 kts 315°
2026-04-20 15:56 56.65744 5.61783 30015 ft 274 kts 315°
2026-04-20 15:56 56.67111 5.59352 30009 ft 277 kts 315°
2026-04-20 15:57 56.68497 5.56879 30017 ft 280 kts 315°
2026-04-20 15:57 56.69894 5.54386 30013 ft 282 kts 315°
2026-04-20 15:57 56.71301 5.51873 30014 ft 284 kts 315°
2026-04-20 15:57 56.72716 5.49341 30017 ft 287 kts 315°
2026-04-20 15:58 56.74147 5.46782 30008 ft 289 kts 315°
2026-04-20 15:58 56.75588 5.44197 30009 ft 291 kts 315°
2026-04-20 15:58 56.77020 5.41628 30007 ft 293 kts 315°
2026-04-20 15:58 56.78478 5.39011 30008 ft 295 kts 315°
2026-04-20 15:59 56.79945 5.36371 30008 ft 297 kts 315°
2026-04-20 15:59 56.81419 5.33717 30008 ft 298 kts 315°
2026-04-20 15:59 56.82900 5.31049 30008 ft 300 kts 315°
2026-04-20 15:59 56.84388 5.28360 30013 ft 302 kts 315°
2026-04-20 16:00 56.87393 5.22931 30008 ft 304 kts 315°
2026-04-20 16:00 56.90397 5.17493 30008 ft 307 kts 315°
2026-04-20 16:01 56.93423 5.11996 30005 ft 305 kts 315°
2026-04-20 16:01 56.96424 5.06531 30003 ft 304 kts 315°
2026-04-20 16:02 56.99409 5.01009 30000 ft 304 kts 310°
2026-04-20 16:02 57.00543 4.97746 29995 ft 304 kts 295°
2026-04-20 16:02 57.01389 4.94186 29999 ft 304 kts 293°
2026-04-20 16:03 57.03092 4.87052 30001 ft 305 kts 293°
2026-04-20 16:03 57.04785 4.79915 30001 ft 304 kts 293°
2026-04-20 16:04 57.06473 4.72783 30000 ft 304 kts 293°
2026-04-20 16:04 57.08153 4.65649 30001 ft 305 kts 293°
2026-04-20 16:05 57.09824 4.58538 30001 ft 305 kts 293°
2026-04-20 16:05 57.11504 4.51364 30001 ft 305 kts 293°
2026-04-20 16:06 57.13181 4.44177 30001 ft 306 kts 293°
2026-04-20 16:06 57.14857 4.36970 30001 ft 305 kts 293°
2026-04-20 16:07 57.16522 4.29792 30001 ft 304 kts 293°
2026-04-20 16:07 57.18178 4.22624 30000 ft 304 kts 293°
2026-04-20 16:08 57.19833 4.15431 30001 ft 305 kts 292°
2026-04-20 16:08 57.21489 4.08227 30001 ft 305 kts 292°
2026-04-20 16:09 57.23133 4.01043 30001 ft 305 kts 292°
2026-04-20 16:09 57.24780 3.93819 30002 ft 304 kts 292°
2026-04-20 16:10 57.26421 3.86599 30001 ft 304 kts 292°
2026-04-20 16:10 57.28057 3.79377 30001 ft 305 kts 292°
2026-04-20 16:11 57.29689 3.72148 30002 ft 305 kts 292°
2026-04-20 16:11 57.31316 3.64914 30002 ft 305 kts 292°
2026-04-20 16:12 57.32929 3.57717 30001 ft 305 kts 292°
2026-04-20 16:12 57.34547 3.50467 30001 ft 305 kts 292°
2026-04-20 16:13 57.36162 3.43213 30001 ft 305 kts 292°
2026-04-20 16:13 57.37771 3.35951 30001 ft 305 kts 292°
2026-04-20 16:14 57.39377 3.28682 30002 ft 305 kts 292°
2026-04-20 16:14 57.40983 3.21396 30007 ft 305 kts 292°
2026-04-20 16:15 57.42586 3.14092 30001 ft 305 kts 292°
2026-04-20 16:15 57.44170 3.06840 30011 ft 304 kts 292°
2026-04-20 16:16 57.45760 2.99546 30001 ft 304 kts 292°
2026-04-20 16:16 57.47346 2.92248 30010 ft 305 kts 292°
2026-04-20 16:17 57.48930 2.84936 30005 ft 305 kts 291°
2026-04-20 16:17 57.50506 2.77628 30008 ft 304 kts 291°
2026-04-20 16:18 57.52080 2.70304 30006 ft 305 kts 291°
2026-04-20 16:18 57.53641 2.63020 30004 ft 305 kts 291°
2026-04-20 16:19 57.55204 2.55697 30006 ft 304 kts 291°
2026-04-20 16:19 57.56765 2.48357 30002 ft 305 kts 291°
2026-04-20 16:20 57.58323 2.41005 30017 ft 305 kts 291°
2026-04-20 16:20 57.59876 2.33648 30001 ft 305 kts 291°
2026-04-20 16:21 57.61423 2.26283 30005 ft 305 kts 291°
2026-04-20 16:21 57.62968 2.18912 30002 ft 305 kts 291°
2026-04-20 16:22 57.64506 2.11545 30005 ft 304 kts 291°
2026-04-20 16:22 57.66040 2.04168 30011 ft 305 kts 291°
2026-04-20 16:23 57.67561 1.96827 30002 ft 305 kts 291°
2026-04-20 16:23 57.69089 1.89433 30002 ft 305 kts 291°
2026-04-20 16:24 57.70611 1.82033 30010 ft 305 kts 291°
2026-04-20 16:24 57.72129 1.74625 30002 ft 305 kts 291°
2026-04-20 16:25 57.73642 1.67222 30016 ft 305 kts 291°
2026-04-20 16:25 57.75154 1.59797 30012 ft 304 kts 290°
2026-04-20 16:26 57.76649 1.52431 30004 ft 304 kts 290°
2026-04-20 16:26 57.78151 1.44998 30006 ft 305 kts 290°
2026-04-20 16:27 57.79396 1.38813 30002 ft 305 kts 290°
2026-04-20 16:27 57.80890 1.31370 30015 ft 305 kts 290°
2026-04-20 16:28 57.82380 1.23919 30003 ft 305 kts 290°
2026-04-20 16:28 57.83866 1.16458 30009 ft 305 kts 290°
2026-04-20 16:29 57.85345 1.09003 30003 ft 305 kts 290°
2026-04-20 16:29 57.86810 1.01582 30007 ft 304 kts 290°
2026-04-20 16:30 57.87529 0.97942 29814 ft 288 kts 290°
2026-04-20 16:30 57.88224 0.94403 28913 ft 291 kts 290°
2026-04-20 16:30 57.88933 0.90795 28182 ft 298 kts 290°
2026-04-20 16:30 57.89645 0.87159 27877 ft 295 kts 290°
2026-04-20 16:31 57.90353 0.83534 27460 ft 295 kts 290°
2026-04-20 16:31 57.91063 0.79907 27032 ft 296 kts 290°
2026-04-20 16:31 57.91771 0.76270 26605 ft 296 kts 290°
2026-04-20 16:31 57.92479 0.72629 26154 ft 297 kts 290°
2026-04-20 16:32 57.93188 0.68981 25699 ft 297 kts 290°
2026-04-20 16:32 57.93897 0.65320 25233 ft 298 kts 290°
2026-04-20 16:32 57.94608 0.61650 24761 ft 298 kts 290°
2026-04-20 16:32 57.95451 0.58088 24219 ft 299 kts 300°
2026-04-20 16:33 57.96530 0.54726 23696 ft 300 kts 301°
2026-04-20 16:33 57.97584 0.51321 23179 ft 300 kts 300°
2026-04-20 16:33 57.98629 0.47911 22642 ft 301 kts 300°
2026-04-20 16:33 57.99677 0.44536 22095 ft 302 kts 300°
2026-04-20 16:34 58.00751 0.41075 21519 ft 302 kts 300°
2026-04-20 16:34 58.01797 0.37684 20940 ft 303 kts 300°
2026-04-20 16:34 58.02860 0.34240 20333 ft 304 kts 300°
2026-04-20 16:34 58.03922 0.30792 20005 ft 303 kts 300°
2026-04-20 16:35 58.04981 0.27345 20005 ft 304 kts 300°
2026-04-20 16:35 58.06046 0.23879 20006 ft 305 kts 300°
2026-04-20 16:35 58.07109 0.20410 20006 ft 306 kts 300°
2026-04-20 16:35 58.08176 0.16922 20006 ft 306 kts 300°
2026-04-20 16:36 58.09243 0.13442 20008 ft 307 kts 300°
2026-04-20 16:36 58.10313 0.09937 20009 ft 307 kts 300°
2026-04-20 16:36 58.11380 0.06435 20005 ft 307 kts 300°
2026-04-20 16:36 58.12449 0.02927 20009 ft 308 kts 300°
2026-04-20 16:37 58.13515 -0.00582 20009 ft 308 kts 300°
2026-04-20 16:37 58.14583 -0.04101 20007 ft 308 kts 300°
2026-04-20 16:37 58.15654 -0.07629 20010 ft 308 kts 300°
2026-04-20 16:37 58.16719 -0.11152 20007 ft 308 kts 300°
2026-04-20 16:38 58.17785 -0.14679 20010 ft 308 kts 300°
2026-04-20 16:38 58.18850 -0.18207 20010 ft 309 kts 300°
2026-04-20 16:38 58.19913 -0.21738 20006 ft 309 kts 299°
2026-04-20 16:38 58.20978 -0.25282 20010 ft 309 kts 299°
2026-04-20 16:39 58.22038 -0.28815 20008 ft 309 kts 299°
2026-04-20 16:39 58.23101 -0.32361 20010 ft 309 kts 299°
2026-04-20 16:39 58.24162 -0.35905 20010 ft 309 kts 299°
2026-04-20 16:39 58.25209 -0.39410 20006 ft 309 kts 299°
2026-04-20 16:40 58.26270 -0.42965 20010 ft 309 kts 299°
2026-04-20 16:40 58.27329 -0.46519 20010 ft 309 kts 299°
2026-04-20 16:40 58.28387 -0.50077 20008 ft 309 kts 299°
2026-04-20 16:40 58.29444 -0.53635 20007 ft 309 kts 299°
2026-04-20 16:41 58.30499 -0.57193 20010 ft 309 kts 299°
2026-04-20 16:41 58.31553 -0.60753 20010 ft 309 kts 299°
2026-04-20 16:41 58.32606 -0.64311 20010 ft 309 kts 299°
2026-04-20 16:41 58.33663 -0.67884 20008 ft 309 kts 299°
2026-04-20 16:42 58.34715 -0.71454 20011 ft 309 kts 299°
2026-04-20 16:42 58.35764 -0.75021 20010 ft 309 kts 299°
2026-04-20 16:42 58.36815 -0.78591 20009 ft 309 kts 299°
2026-04-20 16:42 58.37864 -0.82167 20010 ft 309 kts 299°
2026-04-20 16:43 58.38912 -0.85743 20008 ft 309 kts 299°
2026-04-20 16:43 58.39962 -0.89329 20008 ft 309 kts 299°
2026-04-20 16:43 58.40994 -0.92862 20007 ft 309 kts 299°
2026-04-20 16:43 58.42054 -0.96495 20009 ft 309 kts 299°
2026-04-20 16:44 58.43085 -1.00035 20006 ft 309 kts 299°
2026-04-20 16:44 58.44129 -1.03629 20009 ft 309 kts 298°
2026-04-20 16:44 58.45170 -1.07217 20008 ft 309 kts 298°
2026-04-20 16:44 58.46210 -1.10808 20008 ft 309 kts 298°
2026-04-20 16:45 58.47250 -1.14399 20009 ft 309 kts 298°
2026-04-20 16:45 58.48288 -1.17995 20011 ft 309 kts 298°
2026-04-20 16:45 58.49327 -1.21595 20008 ft 309 kts 298°
2026-04-20 16:45 58.50362 -1.25189 20009 ft 309 kts 298°
2026-04-20 16:46 58.51399 -1.28797 20010 ft 309 kts 298°
2026-04-20 16:46 58.52433 -1.32399 20009 ft 309 kts 298°
2026-04-20 16:46 58.53468 -1.36011 20011 ft 309 kts 298°
2026-04-20 16:46 58.54502 -1.39623 20011 ft 309 kts 298°
2026-04-20 16:47 58.55533 -1.43230 20011 ft 309 kts 298°
2026-04-20 16:47 58.56565 -1.46844 20010 ft 309 kts 298°
2026-04-20 16:47 58.57596 -1.50458 20008 ft 309 kts 298°
2026-04-20 16:47 58.58624 -1.54076 20010 ft 309 kts 298°
2026-04-20 16:48 58.59653 -1.57696 20011 ft 309 kts 298°
2026-04-20 16:48 58.60681 -1.61317 20011 ft 309 kts 298°
2026-04-20 16:48 58.61693 -1.64897 20010 ft 309 kts 298°
2026-04-20 16:48 58.62719 -1.68521 20011 ft 309 kts 298°
2026-04-20 16:49 58.63745 -1.72157 20008 ft 309 kts 298°
2026-04-20 16:49 58.64768 -1.75788 20011 ft 309 kts 298°
2026-04-20 16:49 58.65790 -1.79416 20008 ft 309 kts 298°
2026-04-20 16:49 58.66812 -1.83057 20008 ft 309 kts 298°
2026-04-20 16:50 58.67830 -1.86689 20011 ft 309 kts 298°
2026-04-20 16:50 58.68847 -1.90325 20008 ft 309 kts 298°
2026-04-20 16:50 58.69865 -1.93967 20011 ft 309 kts 298°
2026-04-20 16:50 58.70880 -1.97603 20009 ft 309 kts 298°
2026-04-20 16:51 58.71897 -2.01256 20008 ft 309 kts 298°
2026-04-20 16:51 58.72899 -2.04857 20007 ft 309 kts 298°
2026-04-20 16:51 58.73894 -2.08441 19583 ft 293 kts 298°
2026-04-20 16:51 58.74863 -2.11931 17980 ft 300 kts 298°
2026-04-20 16:52 58.75851 -2.15500 16413 ft 302 kts 298°
2026-04-20 16:52 58.76839 -2.19075 14726 ft 303 kts 298°
2026-04-20 16:52 58.77831 -2.22664 13143 ft 300 kts 298°
2026-04-20 16:52 58.78794 -2.26162 11694 ft 291 kts 297°
2026-04-20 16:53 58.79732 -2.29570 10306 ft 286 kts 297°
2026-04-20 16:53 58.80648 -2.32901 10000 ft 276 kts 297°
2026-04-20 16:53 58.81551 -2.36199 9997 ft 281 kts 297°
2026-04-20 16:53 58.82473 -2.39562 10000 ft 285 kts 297°
2026-04-20 16:54 58.83400 -2.42950 10006 ft 286 kts 297°
2026-04-20 16:54 58.84328 -2.46352 10005 ft 287 kts 297°
2026-04-20 16:54 58.85263 -2.49772 10003 ft 287 kts 297°
2026-04-20 16:54 58.86191 -2.53177 10009 ft 287 kts 297°
2026-04-20 16:55 58.87120 -2.56597 10005 ft 287 kts 297°
2026-04-20 16:55 58.88039 -2.59976 10005 ft 287 kts 297°
2026-04-20 16:55 58.88977 -2.63438 10008 ft 287 kts 297°
2026-04-20 16:55 58.89891 -2.66814 10007 ft 287 kts 297°
2026-04-20 16:56 58.90816 -2.70233 10005 ft 287 kts 297°
2026-04-20 16:56 58.91739 -2.73656 10007 ft 287 kts 297°
2026-04-20 16:56 58.92664 -2.77084 10005 ft 287 kts 297°
2026-04-20 16:56 58.93587 -2.80511 10004 ft 287 kts 297°
2026-04-20 16:57 58.94678 -2.83732 9993 ft 287 kts 311°
2026-04-20 16:57 58.96177 -2.86290 9991 ft 288 kts 325°
2026-04-20 16:57 58.97964 -2.88015 9992 ft 288 kts 340°
2026-04-20 16:57 58.99923 -2.88792 9990 ft 289 kts 355°
2026-04-20 16:58 59.01932 -2.88672 9993 ft 288 kts
2026-04-20 16:58 59.03851 -2.88418 9085 ft 271 kts
2026-04-20 16:58 59.05760 -2.88203 7477 ft 276 kts
2026-04-20 16:58 59.07461 -2.88011 6447 ft 273 kts
2026-04-20 16:59 59.09340 -2.87782 5481 ft 267 kts
2026-04-20 16:59 59.11176 -2.87545 5450 ft 264 kts
2026-04-20 16:59 59.13027 -2.87316 5453 ft 269 kts
2026-04-20 16:59 59.14903 -2.87089 5454 ft 271 kts
2026-04-20 17:00 59.18662 -2.86633 5456 ft 272 kts
2026-04-20 17:00 59.20545 -2.86399 5417 ft 264 kts
2026-04-20 17:00 59.22339 -2.86204 4054 ft 266 kts
2026-04-20 17:01 59.24163 -2.86623 3270 ft 252 kts 352°
2026-04-20 17:01 59.25758 -2.87159 3246 ft 214 kts 355°
2026-04-20 17:01 59.27134 -2.87548 3248 ft 187 kts 356°
2026-04-20 17:01 59.28417 -2.87921 2688 ft 192 kts 356°
2026-04-20 17:02 59.29660 -2.88317 2493 ft 169 kts 355°
2026-04-20 17:02 59.30782 -2.88667 2143 ft 162 kts 357°
2026-04-20 17:02 59.31851 -2.89073 1576 ft 148 kts 351°
2026-04-20 17:02 59.32770 -2.89565 941 ft 132 kts 355°
2026-04-20 17:03 59.33588 -2.90131 565 ft 115 kts 343°
2026-04-20 17:03 59.34272 -2.90577 232 ft 93 kts
2026-04-20 17:03 59.34777 -2.90402 81 ft 64 kts 45°
2026-04-20 17:04 59.34889 -2.90252 84 ft 42 kts 31°
2026-04-20 17:04 59.35264 -2.89828 125 ft 71 kts 43°
2026-04-20 17:04 59.35809 -2.89807 174 ft 108 kts 324°
2026-04-20 17:04 59.35900 -2.90868 276 ft 122 kts 236°
2026-04-20 17:05 59.35409 -2.91951 469 ft 126 kts 205°
2026-04-20 17:05 59.34666 -2.91821 561 ft 108 kts 155°
2026-04-20 17:05 59.34477 -2.90590 241 ft 110 kts 42°
2026-04-20 17:06 59.35119 -2.90006 99 ft 94 kts 35°
2026-04-20 17:06 59.35672 -2.89389 132 ft 104 kts 17°
2026-04-20 17:06 59.36408 -2.88847 451 ft 122 kts 65°
2026-04-20 17:06 59.35913 -2.88556 311 ft 115 kts 233°
2026-04-20 17:07 59.35444 -2.89675 112 ft 98 kts 206°
2026-04-20 17:07 59.34940 -2.90197 84 ft 71 kts 191°
2026-04-20 17:07 59.34750 -2.90116 95 ft 0 kts 212°